DW8485 Weather Reports


Display with metric or nautical units.
time (UTC)temp
F
wind
direction
speed
MPH
gust
MPH
rain 1hr
in
rain 24hr
in
rain mn
in
humidity
%
barometer
mb
20260503191039 72 336 1.0 5.0 0.00 0.03 0.01 46 1018.7
20260503190038 72 337 3.0 5.0 0.00 0.03 0.01 49 1018.7
20260503185538 72 339 2.0 6.0 0.00 0.03 0.01 45 1018.7
20260503185040 72 261 2.0 6.0 0.00 0.03 0.01 46 1018.7
20260503184538 72 197 3.0 6.0 0.00 0.03 0.01 48 1018.7
20260503184039 71 203 3.0 8.0 0.00 0.04 0.01 46 1018.7
20260503183538 72 344 4.0 7.0 0.00 0.04 0.01 45 1018.7
20260503182538 72 328 1.0 8.0 0.00 0.06 0.01 44 1019.3
20260503182039 72 324 6.0 10.0 0.00 0.07 0.01 47 1019.3
20260503181538 71 334 3.0 7.0 0.00 0.07 0.01 48 1019.3
20260503180538 70 343 4.0 7.0 0.00 0.08 0.01 45 1019.3
20260503180038 70 236 2.0 6.0 0.00 0.08 0.01 46 1019.3
20260503175537 70 343 3.0 6.0 0.00 0.08 0.01 46 1019.3
20260503175039 71 334 5.0 9.0 0.00 0.08 0.01 44 1019.3
20260503174538 71 40 4.0 9.0 0.00 0.08 0.01 43 1019.3
20260503174039 71 317 2.0 8.0 0.00 0.09 0.01 45 1019.3
20260503173539 70 208 2.0 6.0 0.00 0.09 0.01 47 1019.3
20260503173039 70 272 2.0 7.0 0.00 0.09 0.01 47 1019.3
20260503172538 70 263 2.0 5.0 0.00 0.10 0.01 49 1019.3
20260503171537 69 183 2.0 5.0 0.00 0.12 0.01 49 1019.3
20260503171038 69 355 2.0 6.0 0.00 0.13 0.01 49 1019.5
20260503170537 69 327 6.0 8.0 0.00 0.15 0.01 50 1019.5
20260503150537 60 340 3.0 8.0 0.00 0.22 0.01 66 1020.0
20260503130538 54 319 2.0 5.0 0.00 0.39 0.01 100 1019.3
20260503110537 46 339 0.0 0.0 0.01 0.48 0.01 93 1017.4
20260503081537 48 338 0.0 0.0 0.00 0.63 0.00 93 1016.1
20260503081037 48 338 0.0 0.0 0.00 0.64 0.00 93 1016.1
20260503080536 48 338 0.0 0.0 0.00 0.64 0.00 93 1016.1
20260503072038 49 338 0.0 0.0 0.00 0.69 0.00 93 1016.0
20260503071536 49 338 0.0 0.0 0.00 0.69 0.00 93 1016.0
20260503071037 49 338 0.0 0.0 0.00 0.70 0.00 93 1015.9
20260503070537 49 338 0.0 0.0 0.00 0.70 0.00 93 1015.9
20260503055037 51 338 0.0 0.0 0.00 0.73 0.00 93 1015.4
20260503054536 51 338 0.0 0.0 0.00 0.73 0.00 93 1015.4
20260503053537 51 338 0.0 0.0 0.00 0.73 0.00 93 1015.4
20260503053037 52 338 0.0 0.0 0.00 0.73 0.00 93 1015.4
20260503052037 52 338 0.0 0.0 0.00 0.73 0.00 94 1015.4
20260503051535 52 338 0.0 0.0 0.00 0.73 0.00 93 1015.4
20260503051037 52 338 0.0 0.0 0.00 0.73 0.00 93 1015.4
20260503050536 52 338 0.0 0.0 0.00 0.73 0.00 94 1015.4
20260503045536 53 338 0.0 0.0 0.00 0.74 0.00 94 1015.4
20260503045037 53 338 0.0 0.0 0.00 0.74 0.00 94 1015.1
20260503044536 53 338 0.0 0.0 0.00 0.74 0.00 94 1015.1
20260503044036 53 338 0.0 0.0 0.00 0.74 0.00 94 1015.1
20260503043538 53 338 0.0 0.0 0.00 0.74 0.00 94 1015.1
20260503043036 53 338 0.0 0.0 0.00 0.74 0.00 94 1015.1
20260503042536 54 338 0.0 0.0 0.00 0.74 0.00 94 1014.8
20260503042037 54 338 0.0 0.0 0.00 0.74 0.00 94 1014.8
20260503040536 54 338 0.0 0.0 0.00 0.74 0.00 94 1014.8
20260503040036 54 338 0.0 2.0 0.00 0.74 0.00 94 1014.8
20260503035536 54 338 1.0 2.0 0.00 0.74 0.74 94 1014.8
20260503035036 54 338 0.0 3.0 0.00 0.74 0.74 94 1014.8
20260503034536 54 338 2.0 3.0 0.00 0.74 0.74 94 1014.4
20260503034037 54 330 3.0 5.0 0.00 0.74 0.74 94 1014.4
20260503033536 54 346 1.0 3.0 0.00 0.74 0.74 94 1014.4
20260503033036 54 345 1.0 3.0 0.00 0.74 0.74 94 1014.4
20260503032037 54 346 0.0 0.0 0.00 0.74 0.74 94 1014.4
20260503031536 54 346 0.0 0.0 0.00 0.74 0.74 94 1014.1
20260503031037 54 346 0.0 0.0 0.00 0.74 0.74 94 1014.1
20260503030537 54 346 0.0 0.0 0.00 0.74 0.74 94 1014.1
20260503030035 54 346 0.0 0.0 0.00 0.74 0.74 94 1014.1
20260503025536 54 346 0.0 0.0 0.00 0.74 0.74 94 1013.3
20260503025037 54 346 0.0 0.0 0.00 0.74 0.74 94 1013.3
20260503024536 54 346 0.0 0.0 0.00 0.74 0.74 94 1013.3
20260503024036 55 346 0.0 0.0 0.00 0.74 0.74 94 1013.3
20260503023536 55 346 0.0 0.0 0.00 0.74 0.74 94 1013.3
20260503023036 55 346 0.0 3.0 0.00 0.74 0.74 94 1013.3
20260503022536 55 344 1.0 3.0 0.00 0.74 0.74 94 1013.3
20260503022036 55 344 1.0 2.0 0.00 0.74 0.74 94 1013.3
20260503021536 55 346 2.0 3.0 0.00 0.74 0.74 94 1013.3
20260503021037 55 47 3.0 7.0 0.00 0.74 0.74 94 1013.3
20260503020535 55 338 2.0 3.0 0.00 0.74 0.74 94 1013.3
20260503020036 55 8 1.0 3.0 0.00 0.74 0.74 94 1012.7
20260503015037 55 5 2.0 3.0 0.00 0.74 0.74 94 1012.7
20260503014536 55 5 1.0 3.0 0.00 0.74 0.74 94 1012.7
20260503014036 55 5 1.0 3.0 0.00 0.74 0.74 94 1012.7
20260503013536 55 350 2.0 3.0 0.00 0.74 0.74 94 1012.7
20260503012535 55 325 1.0 3.0 0.00 0.74 0.74 94 1012.7
20260503012037 55 15 1.0 2.0 0.00 0.74 0.74 94 1012.7
20260503011536 55 15 1.0 2.0 0.00 0.74 0.74 94 1012.7
20260503011037 55 15 1.0 3.0 0.00 0.74 0.74 94 1012.7
20260503010536 55 15 1.0 3.0 0.00 0.74 0.74 94 1012.7
20260503010035 55 13 0.0 3.0 0.00 0.74 0.74 94 1012.7
20260503005535 55 14 0.0 2.0 0.00 0.74 0.74 94 1012.6
20260503005036 55 13 1.0 3.0 0.00 0.74 0.74 94 1012.6
20260503004536 55 15 1.0 3.0 0.00 0.74 0.74 94 1011.8
20260503004036 55 355 2.0 3.0 0.00 0.74 0.74 94 1011.8
20260503003536 55 38 2.0 3.0 0.00 0.74 0.74 94 1011.8
20260503003037 55 349 1.0 3.0 0.00 0.74 0.74 94 1011.8
20260503002535 55 10 2.0 3.0 0.00 0.74 0.74 94 1011.8
20260503002037 55 34 2.0 3.0 0.00 0.74 0.74 94 1011.8
20260503001535 55 335 2.0 5.0 0.00 0.74 0.74 94 1011.8
20260503001036 55 2 2.0 3.0 0.00 0.74 0.74 94 1011.8
20260503000536 55 9 2.0 3.0 0.00 0.74 0.74 94 1011.8
20260503000035 55 20 1.0 3.0 0.00 0.74 0.74 94 1011.9
20260502235036 55 319 1.0 2.0 0.00 0.74 0.74 94 1011.6
20260502234535 55 319 1.0 3.0 0.00 0.74 0.74 94 1011.8
20260502234037 55 19 2.0 6.0 0.00 0.75 0.74 94 1011.8
20260502233037 56 6 3.0 6.0 0.00 0.75 0.74 94 1011.0
20260502232535 56 329 3.0 5.0 0.00 0.75 0.74 94 1011.0
20260502231535 56 15 2.0 5.0 0.00 0.75 0.74 94 1011.0
20260502231035 56 329 3.0 7.0 0.00 0.75 0.74 94 1011.0
20260502230536 56 336 3.0 7.0 0.00 0.76 0.74 94 1011.0
20260502230035 56 327 5.0 10.0 0.00 0.76 0.74 94 1011.0
20260502225535 56 341 2.0 6.0 0.00 0.76 0.74 94 1011.0
20260502225038 56 328 3.0 6.0 0.00 0.76 0.74 94 1011.0
20260502224535 56 11 1.0 3.0 0.00 0.76 0.74 94 1011.3
20260502224036 56 12 1.0 7.0 0.00 0.76 0.74 94 1011.3
20260502223535 56 330 4.0 7.0 0.00 0.76 0.74 94 1011.2
20260502223036 56 353 3.0 6.0 0.00 0.76 0.74 94 1011.1
20260502222536 56 355 4.0 9.0 0.00 0.76 0.74 95 1010.3
20260502221535 56 30 2.0 7.0 0.00 0.76 0.74 95 1010.3
20260502220535 56 348 3.0 5.0 0.00 0.76 0.74 95 1010.3
20260502220035 57 335 3.0 6.0 0.00 0.76 0.74 95 1010.3
20260502215535 56 339 5.0 9.0 0.00 0.76 0.74 95 1010.3
20260502215035 57 0 3.0 6.0 0.00 0.76 0.74 95 1010.3
20260502214535 57 345 5.0 8.0 0.00 0.76 0.74 95 1010.3
20260502214036 57 25 3.0 9.0 0.00 0.77 0.74 95 1010.3
20260502213536 57 6 3.0 6.0 0.00 0.77 0.74 95 1010.3
20260502213036 57 355 3.0 9.0 0.00 0.77 0.74 95 1010.3
20260502212535 57 336 3.0 7.0 0.00 0.77 0.74 95 1010.2
20260502212036 57 323 5.0 7.0 0.00 0.77 0.74 95 1009.8
20260502211535 57 52 4.0 8.0 0.00 0.77 0.74 95 1009.8
20260502211036 57 347 2.0 6.0 0.00 0.78 0.74 95 1009.8
20260502210535 57 336 3.0 5.0 0.00 0.78 0.74 95 1009.8
20260502205535 57 340 3.0 5.0 0.00 0.79 0.74 95 1009.8
20260502205036 57 38 3.0 7.0 0.00 0.81 0.74 95 1009.8
20260502204535 57 37 3.0 6.0 0.00 0.81 0.74 95 1009.8
20260502204036 57 0 3.0 10.0 0.00 0.81 0.74 95 1009.8
20260502203536 57 9 5.0 7.0 0.00 0.82 0.74 95 1009.8
20260502202535 57 353 3.0 7.0 0.00 0.82 0.74 95 1009.8
20260502202036 57 14 3.0 10.0 0.01 0.82 0.74 95 1009.8
20260502201035 57 8 3.0 7.0 0.02 0.82 0.74 95 1009.8
20260502200535 57 25 5.0 9.0 0.02 0.82 0.74 95 1009.8
20260502200035 57 343 5.0 12.0 0.02 0.83 0.74 95 1009.8
20260502195535 57 331 3.0 6.0 0.02 0.83 0.74 95 1009.8
20260502195036 57 336 5.0 10.0 0.02 0.83 0.74 95 1009.8
20260502194535 58 335 5.0 7.0 0.02 0.83 0.74 95 1009.8
20260502194035 58 341 4.0 7.0 0.03 0.83 0.74 95 1009.8
20260502193535 58 30 5.0 12.0 0.03 0.83 0.74 95 1009.8
20260502193035 58 339 5.0 13.0 0.04 0.83 0.74 95 1010.1
20260502192535 58 346 3.0 7.0 0.05 0.83 0.74 95 1010.1
20260502192036 58 344 5.0 9.0 0.05 0.82 0.73 95 1010.1